This is the latest recevied weather packets stored in our database for station/object N9BID. If no packets are shown the sender has not sent any weather packets the latest 10 day(s).
| Time | Temp. | Humidity | Pressure | Rain* | Wind** | Luminosity | Snow |
|---|---|---|---|---|---|---|---|
| 1777901902 | 14.44° C | 57% | 987.7 hPa | 0 mm | - | 301 W/m² | - |
| 1777901600 | 13.89° C | 56% | 987.8 hPa | 0 mm | - | 193 W/m² | - |
| 1777901297 | 13.89° C | 58% | 987.7 hPa | 0 mm | - | 197 W/m² | - |
| 1777900995 | 13.89° C | 57% | 987.7 hPa | 0 mm | - | 212 W/m² | - |
| 1777900692 | 13.89° C | 58% | 987.6 hPa | 0 mm | - | 188 W/m² | - |
| 1777900389 | 13.33° C | 59% | 988 hPa | 0 mm | - | 264 W/m² | - |
| 1777900086 | 13.33° C | 59% | 988.1 hPa | 0 mm | - | 249 W/m² | - |
| 1777899782 | 12.78° C | 59% | 988.1 hPa | 0 mm | - | 203 W/m² | - |
| 1777899479 | 12.78° C | 61% | 988.3 hPa | 0 mm | - | 82 W/m² | - |
| 1777899176 | 12.22° C | 60% | 988.2 hPa | 0 mm | - | 180 W/m² | - |
| 1777898874 | 12.22° C | 61% | 988.2 hPa | 0 mm | - | 72 W/m² | - |
| 1777898571 | 11.67° C | 62% | 988.3 hPa | 0 mm | - | 71 W/m² | - |
| 1777898269 | 11.67° C | 61% | 988.5 hPa | 0 mm | - | 92 W/m² | - |
| 1777897966 | 11.67° C | 63% | 988.4 hPa | 0 mm | - | 76 W/m² | - |
| 1777897662 | 11.67° C | 62% | 988.3 hPa | 0 mm | - | 81 W/m² | - |
| 1777897358 | 11.67° C | 61% | 988.6 hPa | 0 mm | - | 84 W/m² | - |
| 1777897054 | 11.11° C | 62% | 988.5 hPa | 0 mm | - | 73 W/m² | - |
| 1777896751 | 11.11° C | 63% | 988.8 hPa | 0 mm | - | 74 W/m² | - |
| 1777896448 | 11.11° C | 63% | 989 hPa | 0 mm | - | 73 W/m² | - |
| 1777896145 | 11.11° C | 63% | 989.1 hPa | 0 mm | - | 69 W/m² | - |
| 1777895843 | 10.56° C | 63% | 989.2 hPa | 0 mm | - | 59 W/m² | - |
| 1777895540 | 10.56° C | 62% | 989.1 hPa | 0 mm | - | 51 W/m² | - |
| 1777895238 | 10.56° C | 63% | 988.9 hPa | 0 mm | - | 45 W/m² | - |
| 1777894936 | 10.56° C | 63% | 989 hPa | 0 mm | - | 41 W/m² | - |
| 1777894633 | 10.56° C | 63% | 989 hPa | 0 mm | - | 34 W/m² | - |
* Rain latest hour (hover to see other rain measurements)
** Current wind speed in m/s (hover to see current wind gust speed)